This demonstration page uses our WeatherBlox Daily Observations layout. Learn more.

Left ArrowRight Arrow

Hourly Observations for December 6, 2017

Temp ( °F °C ) Dew Point ( °F °C ) Humidity (%) Winds ( mph kmh ) Pressure ( in mb ) Visibility ( mi km ) Precip ( " mm )
12:15 am 00:15 Partly Cloudy 50 10 50 10 100 100 NW 23 37 29.91 1013 10 16 N/A
12:35 am 00:35 Cloudy 50 10 45 7 82 82 NW 21 33 29.94 1014 10 16 N/A
12:55 am 00:55 Cloudy 48 9 41 5 76 76 NW 18 30 29.94 1014 10 16 N/A
1:15 am 01:15 Cloudy 48 9 41 5 76 76 NW 25 41 29.94 1014 10 16 N/A
1:35 am 01:35 Cloudy 48 9 37 3 66 66 NW 22 35 29.94 1014 10 16 N/A
1:55 am 01:55 Cloudy 48 9 37 3 66 66 NW 17 28 29.94 1014 10 16 N/A
2:15 am 02:15 Cloudy 48 9 36 2 62 62 NW 16 26 30.00 1016 10 16 N/A
2:35 am 02:35 Cloudy 48 9 36 2 62 62 NW 20 31 30.00 1016 10 16 N/A
2:55 am 02:55 Cloudy 46 8 32 undefined 57 57 NW 26 43 30.00 1016 10 16 N/A
3:15 am 03:15 Cloudy 46 8 32 undefined 57 57 NW 31 50 30.00 1016 10 16 N/A
3:35 am 03:35 Cloudy 46 8 30 -1 53 53 NW 18 30 30.03 1017 10 16 N/A
3:55 am 03:55 Cloudy 45 7 30 -1 57 57 NW 18 30 30.03 1017 10 16 N/A
4:15 am 04:15 Mostly Cloudy 45 7 28 -2 53 53 NW 21 33 30.06 1018 10 16 N/A
4:35 am 04:35 Partly Cloudy 43 6 27 -3 53 53 NNW 24 39 30.06 1018 10 16 N/A
4:55 am 04:55 Clear 43 6 27 -3 53 53 NNW 10 17 30.09 1019 10 16 N/A
5:15 am 05:15 Clear 43 6 27 -3 53 53 N 13 20 30.09 1019 10 16 N/A
5:35 am 05:35 Clear 41 5 27 -3 57 57 NNW 20 31 30.09 1019 10 16 N/A
5:55 am 05:55 Clear 41 5 27 -3 57 57 NNW 18 30 30.12 1020 10 16 N/A
6:15 am 06:15 Clear 41 5 27 -3 57 57 NNW 15 24 30.12 1020 10 16 N/A
6:35 am 06:35 Clear 39 4 27 -3 61 61 NW 17 28 30.12 1020 10 16 N/A
6:55 am 06:55 Clear 37 3 25 -4 60 60 NW 18 30 30.12 1020 10 16 N/A
7:15 am 07:15 Clear 37 3 21 -6 52 52 NW 20 31 30.15 1021 10 16 N/A
7:35 am 07:35 Sunny 37 3 19 -7 48 48 NW 12 19 30.15 1021 10 16 N/A
7:55 am 07:55 Sunny 37 3 21 -6 52 52 WNW 10 17 30.15 1021 10 16 N/A
8:15 am 08:15 Sunny 37 3 21 -6 52 52 WNW 8 13 30.15 1021 10 16 N/A
8:35 am 08:35 Sunny 37 3 21 -6 52 52 NW 7 11 30.15 1021 10 16 N/A
8:55 am 08:55 Sunny 37 3 21 -6 52 52 WNW 13 20 30.15 1021 10 16 N/A
9:15 am 09:15 Sunny 39 4 21 -6 48 48 WNW 9 15 30.15 1021 10 16 N/A
9:35 am 09:35 Sunny 41 5 21 -6 45 45 NW 9 15 30.15 1021 10 16 N/A
9:55 am 09:55 Sunny 41 5 21 -6 45 45 NW 10 17 30.18 1022 10 16 N/A
10:15 am 10:15 Sunny 43 6 21 -6 42 42 NW 13 20 30.15 1021 10 16 N/A
10:35 am 10:35 Sunny 43 6 21 -6 42 42 NW 13 20 30.15 1021 10 16 N/A
10:55 am 10:55 Sunny 43 6 21 -6 42 42 NNW 14 22 30.15 1021 10 16 N/A
11:15 am 11:15 Sunny 43 6 21 -6 42 42 NW 9 15 30.15 1021 10 16 N/A
11:35 am 11:35 Sunny 45 7 21 -6 39 39 NNW 6 9 30.12 1020 10 16 N/A
11:55 am 11:55 Sunny 45 7 21 -6 39 39 W 9 15 30.12 1020 10 16 N/A
12:15 pm 12:15 Sunny 46 8 21 -6 37 37 W 10 17 30.12 1020 10 16 N/A
12:35 pm 12:35 Sunny 46 8 21 -6 37 37 W 9 15 30.12 1020 10 16 N/A
12:55 pm 12:55 Sunny 46 8 21 -6 37 37 W 13 20 30.12 1020 10 16 N/A
1:15 pm 13:15 Sunny 46 8 21 -6 37 37 WNW 15 24 30.12 1020 10 16 N/A
1:35 pm 13:35 Sunny 45 7 21 -6 39 39 WNW 13 20 30.09 1019 10 16 N/A
1:55 pm 13:55 Sunny 45 7 23 -5 42 42 WNW 8 13 30.09 1019 10 16 N/A
2:15 pm 14:15 Sunny 45 7 23 -5 42 42 WNW 10 17 30.09 1019 10 16 N/A
2:35 pm 14:35 Sunny 45 7 23 -5 42 42 W 6 9 30.09 1019 10 16 N/A
2:55 pm 14:55 Sunny 45 7 23 -5 42 42 W 6 9 30.09 1019 10 16 N/A
3:15 pm 15:15 Sunny 45 7 21 -6 39 39 W 8 13 30.09 1019 10 16 N/A
3:35 pm 15:35 Sunny 45 7 23 -5 42 42 WSW 7 11 30.09 1019 10 16 N/A
3:55 pm 15:55 Sunny 45 7 23 -5 42 42 WSW 3 6 30.09 1019 10 16 N/A
4:15 pm 16:15 Sunny 45 7 23 -5 42 42 W 3 6 30.09 1019 10 16 N/A
4:35 pm 16:35 Sunny 45 7 23 -5 42 42 N N/A 30.09 1019 10 16 N/A
4:55 pm 16:55 Clear 43 6 23 -5 46 46 N N/A 30.09 1019 10 16 N/A
5:15 pm 17:15 Clear 43 6 23 -5 46 46 N N/A 30.09 1019 10 16 N/A
5:35 pm 17:35 Clear 43 6 25 -4 49 49 S 3 6 30.09 1019 10 16 N/A
5:55 pm 17:55 Clear 43 6 23 -5 46 46 N N/A 30.09 1019 10 16 N/A
6:15 pm 18:15 Clear 43 6 23 -5 46 46 SSW 3 6 30.09 1019 10 16 N/A
6:35 pm 18:35 Clear 43 6 23 -5 46 46 S 5 7 30.06 1018 10 16 N/A
6:55 pm 18:55 Clear 41 5 25 -4 53 53 SSW 7 11 30.09 1019 10 16 N/A
7:15 pm 19:15 Clear 41 5 25 -4 53 53 SSW 6 9 30.09 1019 10 16 N/A
7:35 pm 19:35 Clear 39 4 28 -2 65 65 N N/A 30.06 1018 10 16 N/A
7:55 pm 19:55 Clear 37 3 32 undefined 81 81 N N/A 30.09 1019 10 16 N/A
8:15 pm 20:15 Clear 39 4 27 -3 61 61 W 3 6 30.09 1019 10 16 N/A
8:35 pm 20:35 Clear 37 3 28 -2 70 70 W 3 6 30.09 1019 10 16 N/A
8:55 pm 20:55 Clear 37 3 28 -2 70 70 N N/A 30.09 1019 10 16 N/A
9:15 pm 21:15 Clear 37 3 28 -2 70 70 WSW 5 7 30.09 1019 10 16 N/A
9:35 pm 21:35 Clear 37 3 28 -2 70 70 WNW 5 7 30.09 1019 10 16 N/A
9:55 pm 21:55 Clear 39 4 25 -4 56 56 WSW 7 11 30.09 1019 10 16 N/A
10:15 pm 22:15 Clear 41 5 25 -4 53 53 WSW 6 9 30.09 1019 10 16 N/A
10:35 pm 22:35 Clear 37 3 28 -2 70 70 WSW 5 7 30.09 1019 10 16 N/A
10:55 pm 22:55 Clear 37 3 27 -3 65 65 SW 5 7 30.09 1019 10 16 N/A
11:15 pm 23:15 Clear 37 3 25 -4 60 60 SW 6 9 30.09 1019 10 16 N/A
11:35 pm 23:35 Clear 37 3 27 -3 65 65 WSW 6 9 30.09 1019 10 16 N/A
11:55 pm 23:55 Clear 36 2 28 -2 75 75 W 6 9 30.09 1019 10 16 N/A

Powered by AerisWeather